Regional Weather Roundup
Issued by NWS

Home | Current Version | Previous Version | Text Only | Print | Product List | Glossary On
Versions: 1 2 3 4 5 6 7 8 9 10 11 12 13 14 15 16 17 18 19 20 21 22 23 24 25 26 27 28 29 30 31 32 33 34 35 36 37 38 39 40 41 42 43 44 45 46 47 48 49 50
000
ASUS43 KTOP 031059
RWRKS

WEATHER ROUNDUP FOR KANSAS
NATIONAL WEATHER SERVICE GOODLAND KS
600 AM CDT WED JUN 03 2015

NOTE:  "FAIR" INDICATES FEW OR NO CLOUDS BELOW 12,000 FEET WITH NO
SIGNIFICANT WEATHER AND/OR OBSTRUCTIONS TO VISIBILITY.

KSZ001>006-013>018-027>032-041>047-031200-
NORTHWEST KANSAS

CITY           SKY/WX    TMP DP  RH WIND       PRES   REMARKS
GOODLAND       PTCLDY    62  60  93 N10       29.82R
HAYS           CLEAR     66  59  77 S9        29.78R
HILL CITY      CLEAR     66  62  87 NE9       29.83R
RUSSELL        PTCLDY    69  65  86 S20G26    29.76S
$$

KSZ061>065-074>080-084>089-031200-
SOUTHWEST KANSAS

CITY           SKY/WX    TMP DP  RH WIND       PRES   REMARKS
DODGE CITY     CLEAR     67  60  78 S13       29.80F
ELKHART          N/A     61  57  87 SW6         N/A
GARDEN CITY    CLEAR     62  60  93 SE12      29.78S
GREAT BEND     CLEAR     68  63  83 S12       29.80R
LIBERAL        CLEAR     66  59  77 S14       29.81F
$$

KSZ066>073-081>083-090>101-031200-
SOUTHEAST KANSAS

CITY           SKY/WX    TMP DP  RH WIND       PRES   REMARKS
CHANUTE        CLEAR     68  66  93 S12       29.92R
COFFEYVILLE    CLEAR     67  65  93 S7        29.91F
HUTCHINSON     CLEAR     70  64  81 S12       29.83F
MEDICINE LODGE   N/A     68  65  90 SE9       29.83F
NEWTON         CLEAR     68  61  77 S13       29.87S
PARSONS        CLEAR     68  66  93 SE7       29.93S
WICHITA INTL   PTCLDY    70  64  81 S15       29.85S
WICHITA JABRA  CLEAR     69  64  84 S14       29.86S
WINFIELD       CLEAR     68  64  87 S12       29.89S
$$

KSZ007>012-019>026-033>040-048>060-102>105-031200-
NORTHEAST KANSAS

CITY           SKY/WX    TMP DP  RH WIND       PRES   REMARKS
CONCORDIA      CLOUDY    68  63  84 NE14      29.88R
EMPORIA        PTCLDY    67  65  93 S14       29.88R
LAWRENCE       CLEAR     65  61  87 SE7       29.90S
MANHATTAN      MOCLDY    71  66  84 S8        29.84R
OLATHE IND     MOCLDY    66  63  90 S13       29.91F
OLATHE EXE     MOCLDY    65  62  90 S9        29.91S
SALINA         PTCLDY    71  65  81 S10G20    29.81R
TOPEKA BILLARD PTCLDY    67  65  93 SE5       29.88S
TOPEKA FORBES  PTCLDY    69  65  86 SE10      29.87S
$$



USA.gov is the U.S. government's official web portal to all federal, state and local government web resources and services.